Showing default

BEIDOU 3M13, 43622

Orbit data source: Space-Track

BEIDOU 3M13, 43622 is a payload satellite owned by CNSA (CN) in MEO that was launched on Wed, 19 Sep 2018 UTC via a CHANG ZHENG 3B/YZ-1 launch vehicle from the Xichang Space Center, China (XSC). Payloads include a variety of satellites, spacecraft, and rockets equipped with specific instruments for various scientific and technological missions. These include communications satellites like Starlink; space stations such as the ISS; scientific satellites like the Hubble; Earth observation satellites from companies like Planet Labs, Umbra, and HawkEye 360; GPS; miniature CubeSats for education and research; and military/defense satellites.

Loading next visibility...
BEIDOU 3M13 details
Identifier
43622, 2018-072A
Orbit
MEO
Last TLE update3 days ago
Origin
Flag of CNCNSA (CN / PRC)
ManufacturerCAST
MissionOperational Defense Navigation
Bus & MotorBD-3M/SAR, Unknown motor
Mass1,014 kg wet, ~850 kg dry
Launch date (UTC)
2018-09-19 (6 years ago)
Launch vehicle
CHANG ZHENG 3B/YZ-1
Launch site
Xichang Space Center, China (XSC)
Object type
Payload
Rocket body
Debris
Shape & HBRBox + 2 Pan, 10 m
Radar Cross Section8.984 m², Large (>1 m²)

Expand to show TLE details & history

TLE from 3 days ago
0 BEIDOU 3M13
1 43622U 18072A   24359.35961293 -.00000061  00000-0  00000-0 0  9994
2 43622  56.1505  80.5448 0006379 290.8712  69.0814  1.86231104 42600
Epoch: 2024-12-24T08:37Z
Definitive object data (Epoch: 2024-12-24T08:37:50.557Z)
Latitude-0.00002°
Longitude-142.27663°
Altitude21,522.014 km
Speed3.78 km/s
True Right ascension05h 22m 12s
True Declination0° 00' 00"
Sunlit
Object was in daylight at TLE epoch
Visualization TLE readout
Latitude-53.4967°
Longitude102.33557°
Altitude21,533.203 km
Speed3.78 km/s
Apparent Right ascension22h 04m 28s
Apparent Declination-65° 44' 16"
Sunlit
Object is in daylight
Visualization observer readout
Local Sidereal Time20:42:04
Azimuth171.311° S
Elevation-16.857°
Doppler factor1
Orbital elements
Apogee altitude21,545.805 km
Perigee altitude21,510.202 km
Semi-major axis27,906.141 km
Eccentricity0.0006379
Inclination56.1505°
RAAN80.5448°
Arg. of periapsis290.8712°
True anomaly69.1497°
Mean anomaly69.0814°
Eccentric anomaly69.11555°
Mean motion0.46558 °/min
BSTARUnknown
Orbital period773.23 mins
Loading maneuver chart data...
Loading historical data...
Loading historical data...
Loading historical data...
Loading historical data...
Loading historical data...
Loading historical data...
Loading historical data...
Other satellites on launch #72 in the year 2018 (2018-09-19 UTC)

BEIDOU 3M13 Visibility forecast

Observer location: undefined°, undefined

Span
Click to sort rows by Start time (UTC) header in descending order
Start Az.
Max El. time (UTC)
Max El. Az.
Max El.
End time (UTC)
End Az.
135 mins2024-12-27 01:51:06.550Z85.313° E2024-12-27 03:00:06.550Z58.4° ENE17.316°2024-12-27 04:06:06.550Z35.351° NE
283 mins2024-12-27 16:26:06.550Z317.768° NNW2024-12-27 18:46:06.550Z277.608° WNW36.669°2024-12-27 21:09:06.550Z218.215° SW
|